User: anonymous   Login
Location: Space Photons Observatory
(33.2428°N, 111.5467°W)
Time: 13:39:57
(UTC-07:00)
Language:

RESURS DK-1 - Orbit

View from above orbital plane
View from above orbital plane
View from above satellite
View from above satellite

Ground track
Ground track

The orbit data is extracted from the following two-line orbital elements,

1 29228U 06021A   17142.80362669 +.00000135 +00000-0 +17632-4 0  9999
2 29228 069.9339 162.6600 0004606 341.1691 018.9298 15.02149124604282
Epoch (UTC): 22 May 2017 19:17:13
Eccentricity: 0.0004606
inclination: 69.9339°
perigee height: 557 km
apogee height: 563 km
right ascension of ascending node: 162.6600°
argument of perigee: 341.1691°
revolutions per day: 15.02149124
mean anomaly at epoch: 18.9298°
orbit number at epoch: 60428

The dashed part of the orbit path shows where the satellite is in the earth's shadow,  

DLR